Location: Praha
(50.0830°N, 14.4670°E)
Time: 11:46:11
(UTC+02:00)

ISS - Pass Details

Date: 17 May 2019
Orbit: 407 x 410 km, 51.6° (Epoch: 21 May)

Event Time Altitude Azimuth Distance (km) Brightness Sun altitude
Exits shadow 00:39:59 44° 71° (ENE) 582 -3.0 -20.6°
Drops below altitude 10° 00:42:21 10° 75° (ENE) 1,476 -0.9 -20.6°
Sets 00:44:27 0° 76° (ENE) 2,339 0.2 -20.6°
